This is the latest recevied weather packets stored in our database for station/object WE8M. If no packets are shown the sender has not sent any weather packets the latest 1 day(s).
| Time | Temp. | Humidity | Pressure | Rain* | Wind** | Luminosity | Snow |
|---|---|---|---|---|---|---|---|
| 1778068207 | 7.78° C | 94% | 1010.2 hPa | 0 mm | - | - | - |
| 1778066996 | 7.78° C | 93% | 1009.7 hPa | 0 mm | - | - | - |
| 1778066693 | 7.78° C | 93% | 1010 hPa | 0 mm | - | - | - |
| 1778064876 | 7.78° C | 93% | 1008.9 hPa | 0 mm | - | - | - |
| 1778064271 | 7.78° C | 93% | 1008.5 hPa | 0 mm | - | - | - |
| 1778063666 | 7.78° C | 94% | 1008.2 hPa | 0 mm | - | - | - |
| 1778063363 | 7.78° C | 94% | 1008.1 hPa | 0 mm | - | - | - |
| 1778063061 | 7.78° C | 94% | 1008.1 hPa | 1.78 mm | - | - | - |
| 1778062454 | 7.78° C | 94% | 1008.5 hPa | 0 mm | - | - | - |
| 1778061850 | 7.78° C | 94% | 1008.5 hPa | 0 mm | - | - | - |
| 1778061548 | 8.33° C | 94% | 1008.6 hPa | 0 mm | - | - | - |
| 1778060641 | 8.33° C | 94% | 1007.9 hPa | 0 mm | - | - | - |
| 1778060338 | 8.33° C | 94% | 1008.1 hPa | 0 mm | - | - | - |
| 1778059431 | 8.33° C | 94% | 1007.9 hPa | 0 mm | - | - | - |
| 1778059127 | 8.33° C | 94% | 1008 hPa | 0 mm | - | - | - |
| 1778058220 | 8.33° C | 94% | 1007.7 hPa | 0 mm | - | - | - |
| 1778057006 | 8.33° C | 95% | 1007.5 hPa | 0 mm | - | - | - |
| 1778056400 | 8.33° C | 95% | 1007.5 hPa | 0 mm | - | - | - |
| 1778056098 | 8.33° C | 95% | 1007.6 hPa | 0 mm | - | - | - |
| 1778054582 | 8.89° C | 95% | 1007.3 hPa | 1.78 mm | - | - | - |
| 1778054280 | 8.89° C | 95% | 1007 hPa | 3.05 mm | - | - | - |
| 1778053674 | 9.44° C | 95% | 1007.4 hPa | 4.83 mm | - | - | - |
| 1778053371 | 10° C | 95% | 1007.1 hPa | 3.05 mm | - | - | - |
| 1778052766 | 10.56° C | 95% | 1006.7 hPa | 3.05 mm | - | - | - |
| 1778052463 | 11.11° C | 94% | 1006.3 hPa | 3.05 mm | - | - | - |
* Rain latest hour (hover to see other rain measurements)
** Current wind speed in m/s (hover to see current wind gust speed)